TimeEET,TemperatureF,Dew PointF,Humidity,Sea Level PressureIn,VisibilityMPH,Wind Direction,Wind SpeedMPH,Gust SpeedMPH,PrecipitationIn,Events,Conditions,WindDirDegrees,DateUTC
12:00 AM,64.4,37.4,37,29.92,-9999.0,Calm,Calm,-,N/A,,Clear,0,2013-03-01 22:00:00
1:00 AM,64.4,33.8,32,29.92,-9999.0,Calm,Calm,-,N/A,,Clear,0,2013-03-01 23:00:00
2:00 AM,62,33,22,29.91,6,SSE,2.3,,,,,150,2013-03-02 00:00:00
2:00 AM,62.6,33.8,34,29.89,-9999.0,SSE,2.3,-,N/A,,Clear,150,2013-03-02 00:00:00
3:00 AM,62.6,35.6,37,29.89,-9999.0,Calm,Calm,-,N/A,,Clear,0,2013-03-02 01:00:00
4:00 AM,59.0,32.0,36,29.89,-9999.0,SSE,2.3,-,N/A,,Clear,160,2013-03-02 02:00:00
5:00 AM,59.0,37.4,45,29.89,-9999.0,Calm,Calm,-,N/A,,Clear,0,2013-03-02 03:00:00
6:00 AM,57.2,35.6,44,29.89,-9999.0,Calm,Calm,-,N/A,,Clear,0,2013-03-02 04:00:00
7:00 AM,59.0,35.6,42,29.92,-9999.0,ENE,3.5,-,N/A,,Clear,60,2013-03-02 05:00:00
8:00 AM,63,40,31,29.92,6,NNW,2.3,,,,,340,2013-03-02 06:00:00
8:00 AM,62.6,41.0,45,29.92,-9999.0,NNW,2.3,-,N/A,,Clear,340,2013-03-02 06:00:00
9:00 AM,69.8,42.8,38,29.92,-9999.0,NE,3.5,-,N/A,,Clear,50,2013-03-02 07:00:00
10:00 AM,75.2,48.2,38,29.95,3.7,Calm,Calm,-,N/A,,Unknown,0,2013-03-02 08:00:00
11:00 AM,78.8,48.2,34,29.95,2.5,NNW,2.3,-,N/A,,Haze,340,2013-03-02 09:00:00
12:00 PM,-9999,-9999,N/A,29.92,3.7,North,-9999.0,-,N/A,,Unknown,0,2013-03-02 10:00:00
1:00 PM,86.0,46.4,25,29.89,3.7,NW,2.3,-,N/A,,Unknown,320,2013-03-02 11:00:00
2:00 PM,89,46,14,29.86,4,WNW,2.3,,,,Haze,290,2013-03-02 12:00:00
2:00 PM,89.6,46.4,22,29.86,3.7,WNW,2.3,-,N/A,,Unknown,290,2013-03-02 12:00:00
3:00 PM,89.6,44.6,21,29.86,3.7,NW,2.3,-,N/A,,Unknown,310,2013-03-02 13:00:00
4:00 PM,89.6,48.2,24,29.83,3.7,West,4.6,-,N/A,,Unknown,270,2013-03-02 14:00:00
5:00 PM,86.0,50.0,29,29.86,3.7,West,3.5,-,N/A,,Unknown,280,2013-03-02 15:00:00
6:00 PM,82.4,50.0,32,29.86,3.7,Calm,Calm,-,N/A,,Unknown,0,2013-03-02 16:00:00
7:00 PM,77.0,50.0,39,29.86,3.7,Calm,Calm,-,N/A,,Unknown,0,2013-03-02 17:00:00
8:00 PM,78,46,22,29.89,4,South,2.3,,,,Haze,180,2013-03-02 18:00:00
8:00 PM,77.0,46.4,34,29.89,3.7,South,2.3,-,N/A,,Unknown,180,2013-03-02 18:00:00
9:00 PM,75.2,42.8,31,29.89,3.7,South,1.2,-,N/A,,Unknown,170,2013-03-02 19:00:00
10:00 PM,73.4,42.8,33,29.89,3.7,Calm,Calm,-,N/A,,Unknown,0,2013-03-02 20:00:00
11:00 PM,73.4,41.0,31,29.89,3.7,SE,8.1,-,N/A,,Unknown,140,2013-03-02 21:00:00